Weather History for Brooksville, FL

Change the Weather History Date:

Sunday, August 18, 2013

  Actual Average Record
Temperature  
Mean Temperature 82 °F -  
Max Temperature 91 °F 88 °F 95 °F (2001)
Min Temperature 75 °F 69 °F 68 °F (1996)
Cooling Degree Days 17    
Growing Degree Days 32 (Base 50)    
Moisture  
Dew Point 75 °F    
Average Humidity 88    
Maximum Humidity 100    
Minimum Humidity 61    
Precipitation  
Precipitation 1.69 in - - ()
Sea Level Pressure  
Sea Level Pressure 30.08 in    
Wind  
Wind Speed 5 mph (ESE)    
Max Wind Speed 23 mph    
Max Gust Speed 30 mph    
Visibility 8 miles    
Events Fog , Rain    
Averages and records for this station are not official NWS values.
T = Trace of Precipitation, MM = Missing Value Source: NWS Daily Summary

Daily Weather History Graph

Daily Weather History Graph

Search for Another Location

Airport:

Trip Planner

Search our weather history database for the weather conditions in past years. The results will help you decide how hot, cold, wet, or windy it might be!

Date:

Astronomy

Aug. 18, 2013 Rise Set
Actual Time 7:01 AM EDT 8:05 PM EDT
Civil Twilight 6:36 AM EDT 8:30 PM EDT
Nautical Twilight 6:07 AM EDT 8:59 PM EDT
Astronomical Twilight 5:37 AM EDT 9:29 PM EDT
Moon 6:06 PM EDT (8/18) 4:15 AM EDT (8/18)
Length of Visible Light 13h 53m
Length of Day
13h 04m
Waxing Gibbous, 92% of the Moon is Illuminated
Aug 18
Waxing Gibbous
Aug 20
Full
Aug 28
Last Quarter
Sep 5
New
Sep 12
First Quarter

Hourly Weather History & Observations

Time (EDT) Temp. Heat Index Dew Point Humidity Pressure Visibility Wind Dir Wind Speed Gust Speed Precip Events Conditions
12:53 AM 75.9 °F - 73.9 °F 94% 30.11 in 10.0 mi Calm Calm - N/A   Clear
1:53 AM 75.9 °F - 73.9 °F 94% 30.09 in 10.0 mi East 3.5 mph - N/A   Clear
2:53 AM 75.9 °F - 73.9 °F 94% 30.07 in 10.0 mi East 6.9 mph - N/A   Clear
3:53 AM 75.9 °F - 75.0 °F 97% 30.06 in 10.0 mi East 6.9 mph - N/A   Clear
4:53 AM 75.9 °F - 75.0 °F 97% 30.06 in 10.0 mi East 4.6 mph - N/A   Clear
5:53 AM 75.9 °F - 73.9 °F 94% 30.06 in 10.0 mi East 3.5 mph - N/A   Clear
6:53 AM 75.9 °F - 75.0 °F 97% 30.07 in 10.0 mi East 3.5 mph - N/A   Clear
7:53 AM 77.0 °F - 75.9 °F 96% 30.08 in 10.0 mi East 3.5 mph - 0.01 in   Clear
8:53 AM 80.1 °F 85.8 °F 77.0 °F 90% 30.08 in 10.0 mi ESE 8.1 mph - N/A   Clear
9:53 AM 84.0 °F 93.7 °F 77.0 °F 79% 30.10 in 10.0 mi SE 6.9 mph - N/A   Scattered Clouds
10:06 AM 84.2 °F 94.1 °F 77.0 °F 79% 30.10 in 10.0 mi SE 8.1 mph - N/A   Mostly Cloudy
10:24 AM 84.2 °F 94.1 °F 77.0 °F 79% 30.11 in 10.0 mi ESE 6.9 mph - N/A   Scattered Clouds
10:53 AM 86.0 °F 93.8 °F 73.9 °F 67% 30.10 in 10.0 mi ESE 9.2 mph - N/A   Clear
11:53 AM 87.1 °F 95.4 °F 73.9 °F 65% 30.09 in 10.0 mi Variable 4.6 mph - N/A   Mostly Cloudy
12:53 PM 86.0 °F 95.1 °F 75.0 °F 70% 30.09 in 10.0 mi ENE 8.1 mph - N/A   Overcast
1:53 PM 87.1 °F 98.8 °F 77.0 °F 72% 30.06 in 10.0 mi NE 3.5 mph - 0.04 in   Mostly Cloudy
2:53 PM 89.1 °F 98.0 °F 73.9 °F 61% 30.06 in 10.0 mi SE 5.8 mph - N/A   Mostly Cloudy
3:39 PM 80.6 °F 86.2 °F 75.2 °F 84% 30.05 in 1.8 mi East 17.3 mph 21.9 mph 0.12 in Rain Heavy Rain
3:42 PM 78.8 °F - 75.2 °F 89% 30.05 in 0.8 mi East 18.4 mph 27.6 mph 0.25 in Rain Heavy Rain
3:49 PM 78.8 °F - 75.2 °F 89% 30.07 in 0.5 mi East 23.0 mph 29.9 mph 0.69 in Fog , Rain Heavy Rain
3:50 PM 78.1 °F - 75.9 °F 93% 30.07 in 0.2 mi ESE 23.0 mph 29.9 mph 0.79 in Fog , Rain Heavy Rain
4:05 PM 75.2 °F - 75.2 °F 100% 30.06 in 1.5 mi ESE 5.8 mph - 0.63 in Rain Rain
4:07 PM 75.2 °F - 75.2 °F 100% 30.06 in 4.0 mi ESE 4.6 mph - 0.64 in Rain Light Rain
4:15 PM 75.2 °F - 73.4 °F 94% 30.05 in 4.0 mi Calm Calm - 0.67 in Rain Rain
4:24 PM 75.2 °F - 73.4 °F 94% 30.05 in 6.0 mi Calm Calm - 0.68 in Rain Light Rain
4:53 PM 75.9 °F - 73.9 °F 94% 30.06 in 10.0 mi SSW 5.8 mph - 0.69 in Rain Light Rain
5:53 PM 78.1 °F - 75.9 °F 93% 30.06 in 10.0 mi WSW 3.5 mph - 0.00 in   Mostly Cloudy
6:53 PM 78.1 °F - 75.9 °F 93% 30.06 in 10.0 mi Calm Calm - 0.00 in Rain Light Rain
7:53 PM 78.1 °F - 75.9 °F 93% 30.08 in 10.0 mi Calm Calm - 0.01 in   Scattered Clouds
8:53 PM 78.1 °F - 75.0 °F 90% 30.09 in 10.0 mi Calm Calm - N/A   Mostly Cloudy
9:53 PM 75.9 °F - 73.9 °F 94% 30.09 in 9.0 mi SE 3.5 mph - 0.01 in Rain Light Rain
10:53 PM 75.0 °F - 73.9 °F 96% 30.09 in 10.0 mi NE 4.6 mph - 0.01 in   Clear
11:53 PM 75.0 °F - 73.9 °F 96% 30.12 in 2.5 mi ESE 5.8 mph - 0.13 in Rain Heavy Rain